Location: Potawatomi Wildlife Park
(41.2308°N, 86.1050°W)
Time: 11:51:07
(UTC-05:00)

Daily predictions for brighter satellites

Satellite Brightness Start Highest point End
(mag) Time Altitude Azimuth Time Altitude Azimuth Time Altitude Azimuth
Meteor 2-4 Rocket 4.0 17:40:14 10° SSE 17:45:19 44° E 17:50:23 10° NNE
Cosmos 2278 3.9 17:46:08 10° S 17:51:41 60° ESE 17:57:18 10° NNE
Cosmos 2369 3.8 17:46:19 10° S 17:51:54 63° ESE 17:57:33 10° NNE
CSL-04 Rocket 3.7 17:46:48 10° SSE 17:52:10 64° ENE 17:57:37 10° N
ALOS 3.7 17:52:03 10° ESE 17:54:59 17° ENE 17:57:56 10° NNE
Ariane Rocket 3.1 17:50:09 10° SSE 17:55:05 57° ENE 18:00:03 10° N
Meteor 1-28 Rocket 3.8 17:51:43 10° NNE 17:55:16 38° E 17:58:49 10° SSE
Cosmos 1975 4.0 17:52:05 10° NNW 17:56:00 48° W 17:59:55 10° SSW
Cosmos 1455 Rocket 3.0 17:51:57 10° N 17:56:23 80° E 18:00:44 10° S
Cosmos 2266 Rocket 4.1 17:52:19 10° N 17:58:15 50° ENE 18:04:14 10° SSE
USA 238 DEB 3.9 17:52:01 10° NW 17:59:10 85° WSW 18:06:23 10° SSE
USA 238 3.9 17:52:08 10° NW 17:59:16 85° WSW 18:06:29 10° SSE
USA 116 4.2 17:58:08 10° NE 18:00:50 26° E 18:03:30 10° SSE
Cosmos 1544 Rocket 3.6 17:56:34 10° N 18:00:56 84° W 18:05:15 10° S
Cosmos 724 4.2 17:58:27 10° NNW 18:04:16 76° ENE 18:10:04 10° SE
Cosmos 1697 Rocket 3.1 17:59:08 10° S 18:04:29 46° ESE 18:09:50 10° NE
RESURS DK-1 4.2 18:03:27 10° SE 18:05:35 14° ESE 18:07:11 12° ENE
Meteor 1-13 Rocket 4.3 18:00:18 10° S 18:05:54 88° E 18:11:40 10° N
IRAS Rocket 4.2 18:01:07 10° SSE 18:06:35 84° ENE 18:12:06 10° NNW
YAOGAN 1 3.1 18:04:03 10° SE 18:08:00 37° ENE 18:12:00 10° N
Cosmos 1743 3.7 18:05:02 10° NNW 18:08:50 52° W 18:12:37 10° S
Cosmos 1125 Rocket 3.5 18:03:42 10° SSW 18:09:00 82° ESE 18:14:18 10° NNE
Cosmos 1269 Rocket 4.0 18:06:11 10° NNW 18:11:27 61° ENE 18:16:40 10° SSE
MINOTAUR IV R/B 4.5 18:08:07 10° NNW 18:12:37 71° ENE 18:17:03 10° SSE
Cosmos 372 Rocket 4.0 18:10:46 10° SSW 18:15:59 90° W 18:21:12 10° NNE
Cosmos 1048 Rocket 4.0 18:11:32 10° NNW 18:16:57 84° ENE 18:22:18 10° SSE
ERS-2 3.2 18:15:28 10° ESE 18:18:25 23° ENE 18:21:23 10° NNE
Cosmos 2082 3.8 18:15:11 10° NNW 18:20:50 81° WSW 18:26:27 10° SSE
SJ 16-02 1.6 18:18:57 10° SSW 18:23:18 71° WNW 18:27:44 10° NNE
Meteor 1-15 Rocket 4.4 18:18:17 10° N 18:24:09 57° ENE 18:29:54 10° SSE
Landsat 4 4.1 18:21:03 10° NNE 18:24:42 42° E 18:28:19 10° S
PSLV R/B 3.0 18:21:31 10° W 18:24:43 89° SSW 18:26:40 21° E
COSMO-SKYMED 1 3.0 18:21:24 10° NNE 18:25:30 39° E 18:29:33 10° SSE
NOSS 3-2 (A) 4.0 18:19:04 10° NW 18:26:41 86° ENE 18:34:56 10° SE
CORIOLIS 4.2 18:21:44 10° SSE 18:27:09 87° WSW 18:32:35 10° NNW
CZ-4 R/B 1.2 18:23:20 10° SSE 18:27:12 87° ENE 18:31:12 10° NNW
Cosmos 2227 Rocket 3.1 18:25:25 10° NNW 18:30:55 53° WSW 18:36:22 10° S
Abrixas rocket 3.7 18:30:19 10° NW 18:32:58 22° N 18:33:51 20° NNE
NOSS 3-2 (C) 4.0 18:28:06 10° NNW 18:35:41 77° NE 18:43:57 10° SE
ATLAS 3B R/B 3.6 18:30:24 10° NW 18:36:44 48° WSW 18:42:56 10° S
Meteor 2-11 Rocket 4.5 18:32:04 10° S 18:38:03 57° E 18:44:04 10° NNE
ATLAS 2AS CENTAUR R/B 4.2 18:34:48 10° WSW 18:42:00 37° NW 18:49:26 10° NNE
Cosmos 1025 Rocket 2.9 18:40:00 10° S 18:44:15 65° E 18:48:18 11° NNE
Cosmos 1980 Rocket 2.2 18:40:49 10° S 18:46:22 59° ESE 18:50:26 19° NE
Cosmos 2084 3.3 18:44:21 10° SW 18:48:31 83° WNW 18:50:39 27° NNE
USA 215 3.5 18:42:55 10° SE 18:49:26 74° SW 18:55:59 10° NW
Okean 2 3.2 18:45:50 10° S 18:49:55 77° E 18:53:32 13° N
Cosmos 1656 4.5 18:46:15 10° SW 18:51:38 49° WNW 18:56:58 10° NNE
Cosmos 1066 Rocket 4.5 18:47:25 10° SSE 18:52:35 42° E 18:55:35 22° NE
Cosmos 1553 Rocket 4.3 18:49:21 10° SSE 18:55:20 43° E 19:01:01 11° NNE
SKYMED 3 4.5 18:51:24 11° NNE 18:55:36 87° E 18:59:57 10° SSW
Shenzhou-11 Module 4.3 18:54:11 10° S 18:55:31 14° SSE 18:55:31 14° SSE
Cosmos 2297 Rocket 3.8 18:51:51 10° NW 18:57:01 37° WSW 19:02:09 10° S
SL-24 R/B - RUBIN 2 4.2 18:51:17 10° SSW 18:57:32 88° ESE 19:01:12 23° NNE
CZ-2C R/B 4.4 18:53:15 10° N 18:57:53 56° WNW 19:02:31 10° SSW
Okean 1-7 Rocket 3.4 18:54:27 10° S 18:58:49 71° E 19:01:59 19° NNE
DELTA 2 R/B (1) 3.9 18:53:57 10° W 18:59:26 60° SSW 19:02:55 22° ESE
NOSS 3-4 (A) 3.7 18:56:41 10° SW 19:02:53 71° NW 19:07:29 20° NNE
NOSS 3-4 (C) 3.6 18:56:46 10° SW 19:02:57 72° NW 19:07:33 20° NNE
NOAA 12 3.9 18:58:32 10° SSE 19:03:46 74° ENE 19:09:01 10° N
Cosmos 1745 Rocket 4.2 19:02:59 10° N 19:08:52 43° ENE 19:14:48 10° SSE
MOS 1 4.4 19:03:44 10° S 19:09:25 79° WSW 19:15:07 10° NNW
NOSS 2-2 (D) 3.3 19:06:15 10° SSW 19:10:05 59° ESE 19:10:21 57° E
SKYMED 2 4.1 19:09:36 12° N 19:13:35 59° WNW 19:17:51 10° SSW
CENTAUR R/B 3.1 19:07:37 10° NNW 19:15:28 64° NE 19:22:17 17° SE
DMSP B5D1-3 4.4 19:12:05 22° NNE 19:15:28 79° ESE 19:20:34 10° S
DNEPR-1 R/B 4.1 19:10:39 10° NNW 19:15:53 89° NE 19:22:18 10° SSE
Cosmos 1606 Rocket 3.3 19:12:49 10° N 19:17:10 76° E 19:21:28 10° SSE
Cosmos 2227 4.1 19:14:08 10° NNW 19:19:53 69° ENE 19:24:25 16° SE
Cosmos 2344 4.0 19:14:11 10° S 19:21:05 37° ESE 19:22:05 36° E
NOSS 2-2 (E) 3.3 19:21:27 10° SW 19:25:22 81° NW 19:25:38 75° N
FENGYUN 3A 3.9 19:20:09 10° S 19:25:30 70° WSW 19:30:52 10° NNW
Lacrosse 5 rocket 2.7 19:22:53 10° SSW 19:25:21 28° SSE 19:25:21 28° SSE
SL-16 R/B 2.7 19:25:09 10° S 19:29:37 42° SE 19:29:37 42° SE
Cosmos 2263 Rocket 3.6 19:25:28 10° N 19:27:54 23° N 19:27:54 23° N
BREEZE-M DEB (TANK) 4.2 19:27:55 10° NW 19:30:38 38° N 19:30:38 38° N
ALOS 3.0 19:27:27 10° S 19:31:59 53° W 19:36:34 10° NNW
NOSS 2-2 (C) 3.4 19:28:42 10° SW 19:32:18 74° WSW 19:32:18 74° WSW
Cosmos 2322 Rocket 2.7 19:28:46 10° S 19:32:59 42° SE 19:32:59 42° SE
SL-8 R/B 3.7 19:30:42 10° SW 19:35:14 66° SSE 19:35:14 66° SSE
SPOT 3 Rocket 4.3 19:33:17 10° S 19:38:18 51° W 19:43:22 10° NNW
RESURS DK-1 3.2 19:39:12 10° SW 19:43:08 48° WNW 19:43:08 48° WNW
Cosmos 1892 Rocket 3.8 19:40:02 10° SSW 19:44:10 67° WSW 19:44:10 67° WSW
Thor Agena Rocket 4.0 19:49:31 51° S 19:49:31 51° S 19:53:29 10° S
Cosmos 1697 Rocket 4.5 19:43:52 10° WSW 19:48:37 27° NW 19:52:23 14° N
Cosmos 2251 Rocket 3.9 19:43:49 10° NNW 19:49:02 62° WSW 19:54:10 10° S
S3M 4.4 20:02:10 10° SSW 20:08:09 57° W 20:11:12 29° NNW
Cosmos 1980 Rocket 4.2 20:26:24 10° WSW 20:30:47 22° NW 20:32:15 20° NNW
CENTAUR R/B 4.4 20:58:54 10° NW 21:05:57 34° WSW 21:09:42 24° SSW
